TimeEST,TemperatureF,Dew PointF,Humidity,Sea Level PressureIn,VisibilityMPH,Wind Direction,Wind SpeedMPH,Gust SpeedMPH,PrecipitationIn,Events,Conditions,WindDirDegrees,DateUTC
12:54 AM,39.9,39.0,97,30.09,1.8,Calm,Calm,-,N/A,,Clear,0,2012-11-21 05:54:00
12:57 AM,39.2,39.2,100,30.08,1.0,Calm,Calm,-,N/A,,Clear,0,2012-11-21 05:57:00
1:05 AM,39.2,39.2,100,30.08,1.8,Calm,Calm,-,N/A,,Clear,0,2012-11-21 06:05:00
1:07 AM,37.4,37.4,100,30.08,3.0,Calm,Calm,-,N/A,,Clear,0,2012-11-21 06:07:00
1:54 AM,39.0,37.9,96,30.08,4.0,Calm,Calm,-,N/A,,Clear,0,2012-11-21 06:54:00
2:28 AM,39.2,39.2,100,30.07,2.5,Calm,Calm,-,N/A,,Clear,0,2012-11-21 07:28:00
2:36 AM,39.2,37.4,93,30.07,5.0,Calm,Calm,-,N/A,,Clear,0,2012-11-21 07:36:00
2:54 AM,39.9,39.9,100,30.08,5.0,Calm,Calm,-,N/A,,Clear,0,2012-11-21 07:54:00
3:54 AM,41.0,39.9,96,30.08,6.0,North,4.6,-,N/A,,Mostly Cloudy,350,2012-11-21 08:54:00
4:54 AM,41.0,39.9,96,30.09,6.0,North,3.5,-,N/A,,Clear,10,2012-11-21 09:54:00
5:54 AM,39.9,39.0,97,30.10,4.0,Calm,Calm,-,N/A,,Clear,0,2012-11-21 10:54:00
6:54 AM,39.9,39.0,97,30.11,4.0,North,3.5,-,N/A,,Clear,360,2012-11-21 11:54:00
7:54 AM,44.1,42.1,93,30.12,4.0,North,4.6,-,N/A,,Clear,10,2012-11-21 12:54:00
8:54 AM,48.0,44.1,86,30.14,7.0,NE,8.1,-,N/A,,Clear,40,2012-11-21 13:54:00
9:54 AM,52.0,44.1,74,30.14,9.0,NNE,9.2,-,N/A,,Clear,30,2012-11-21 14:54:00
10:54 AM,55.0,44.1,67,30.12,8.0,NE,16.1,-,N/A,,Partly Cloudy,40,2012-11-21 15:54:00
11:54 AM,57.9,43.0,58,30.10,10.0,NNE,13.8,-,N/A,,Clear,30,2012-11-21 16:54:00
12:54 PM,59.0,43.0,55,30.09,10.0,NNE,12.7,-,N/A,,Clear,20,2012-11-21 17:54:00
1:54 PM,61.0,42.1,50,30.08,10.0,North,11.5,-,N/A,,Clear,350,2012-11-21 18:54:00
2:54 PM,62.1,42.1,48,30.07,10.0,North,11.5,-,N/A,,Clear,360,2012-11-21 19:54:00
3:54 PM,59.0,41.0,51,30.08,10.0,North,8.1,-,N/A,,Clear,360,2012-11-21 20:54:00
4:54 PM,57.0,39.9,53,30.09,10.0,North,6.9,-,N/A,,Clear,360,2012-11-21 21:54:00
5:54 PM,53.1,37.9,57,30.11,10.0,North,4.6,-,N/A,,Clear,360,2012-11-21 22:54:00
6:54 PM,50.0,37.9,63,30.12,9.0,North,3.5,-,N/A,,Clear,360,2012-11-21 23:54:00
7:54 PM,50.0,37.9,63,30.14,10.0,NE,4.6,-,N/A,,Clear,40,2012-11-22 00:54:00
8:54 PM,48.0,37.0,66,30.15,10.0,NNE,5.8,-,N/A,,Clear,20,2012-11-22 01:54:00
9:54 PM,45.0,37.0,74,30.15,10.0,North,3.5,-,N/A,,Clear,350,2012-11-22 02:54:00
10:54 PM,45.0,36.0,71,30.14,10.0,NNE,6.9,-,N/A,,Clear,30,2012-11-22 03:54:00
11:54 PM,46.0,34.0,63,30.15,10.0,NNE,6.9,-,N/A,,Clear,30,2012-11-22 04:54:00